Regional Weather Roundup
Issued by NWS

Home | Current Version | Previous Version | Text Only | Print | Product List | Glossary On
Versions: 1 2 3 4 5 6 7 8 9 10 11 12 13 14 15 16 17 18 19 20 21 22 23 24 25 26 27 28 29 30 31 32 33 34 35 36 37 38 39 40 41 42 43 44 45 46 47 48 49 50
000
ASPQ40 PGUM 222112
RWRPQ
WEATHER ROUNDUP FOR THE MARIANAS AND MICRONESIA
NATIONAL WEATHER SERVICE TIYAN GU
700 AM CHST TUE JAN 23 2018

GUZ001>004-222200-
MARIANA ISLANDS-

CITY           SKY/WX    TMP DP  RH WIND       PRES   REMARKS
GUAM AIRPORT   PTCLDY    81  73  78 E10       29.84R
ANDERSEN AFB   MOCLDY    79  72  78 E17       29.84R
ROTA AIRPORT   PTCLDY    79  72  78 E14       29.84R
TINIAN AP      PTCLDY    79  73  83 E12       29.82R
SAIPAN AP      PTCLDY    81  75  83 E13       29.84R

$$

PMZ161-222200-
REPUBLIC OF PALAU-

CITY           SKY/WX    TMP DP  RH WIND       PRES   REMARKS
KOROR AP       NOT AVBL
KOROR WSO      SHOWER    79  75  89 S7        29.72R

$$

PMZ171>174-222200-
FEDERATED STATES OF MICRONESIA-

CITY           SKY/WX    TMP DP  RH WIND       PRES   REMARKS
YAP AIRPORT    MOCLDY    79  75  89 VRB6      29.72R
CHUUK AP       CLOUDY    81  75  83 NE12      29.75R
POHNPEI AP     NOT AVBL
POHNPEI WSO    CLOUDY    82  75  78 NE6       29.77R
KOSRAE AP      NOT AVBL

$$

PMZ181-222200-
REPUBLIC OF THE MARSHALL ISLANDS-

CITY           SKY/WX    TMP DP  RH WIND       PRES   REMARKS
KWAJALEIN AP   MOSUNNY   82  77  83 E17       29.76R HX  91
MAJURO AP      PTSUNNY   82  77  83 E14       29.75  HX  91
MAJURO WSO     PTSUNNY   84  77  79 E14       29.72S HX  94

$$




USA.gov is the U.S. government's official web portal to all federal, state and local government web resources and services.